AirNav   Everest Fuels
 
 1027 users online  

4J1 Brantley County Airport
Nahunta, Georgia, USA

GOING TO NAHUNTA?


FAA INFORMATION EFFECTIVE 01 DECEMBER 2022

Location

FAA Identifier: 4J1
Lat/Long: 31-12-21.9000N 081-54-21.6000W
31-12.365000N 081-54.360000W
31.2060833,-81.9060000
(estimated)
Elevation: 84.8 ft. / 25.8 m (surveyed)
Variation: 06W (2010)
From city: 4 miles E of NAHUNTA, GA
Time zone: UTC -5 (UTC -4 during Daylight Saving Time)
Zip code: 31553

Airport Operations

Airport use: Open to the public
Control tower: no
ARTCC: JACKSONVILLE CENTER
FSS: MACON FLIGHT SERVICE STATION
NOTAMs facility: MCN (NOTAM-D service available)
Attendance: UNATNDD
Wind indicator: lighted
Segmented circle: yes
Lights: ACTVT MIRL RY 01/19 AND PAPI RY 01 & 19 - CTAF.
Beacon: white-green (lighted land airport)
Operates sunset to sunrise.

Airport Communications

CTAF: 122.9
  • APCH/DEP SVC PRVDD BY JACKSONVILLE ARTCC ON FREQS 127.575/269.025 (ALMA RCAG).

Nearby radio navigation aids

VOR radial/distance  VOR name  Freq  Var
SSIr296/25.4BRUNSWICK VORTAC109.8004W
AYSr096/33.6WAYCROSS VORTAC110.2000E
AMGr123/36.7ALMA VORTAC115.1000E

 
NDB name  Hdg/Dist  Freq  Var  ID
BAXLEY147/39.237606WBHC -... .... -.-.

Airport Services

Parking: tiedowns
Airframe service: NONE
Powerplant service: NONE
Bottled oxygen: NONE
Bulk oxygen: NONE

Runway Information

Runway 1/19

Dimensions: 4000 x 75 ft. / 1219 x 23 m
Surface: asphalt, in good condition
Weight bearing capacity: 
Single wheel: 14.0
Runway edge lights: medium intensity
RUNWAY 1  RUNWAY 19
Latitude: 31-12.036240N31-12.692127N
Longitude: 081-54.401162W081-54.317205W
Elevation: 79.6 ft.81.0 ft.
Traffic pattern: leftleft
Runway heading: 012 magnetic, 006 true192 magnetic, 186 true
Markings: nonprecision, in good conditionnonprecision, in good condition
Visual slope indicator: 2-light PAPI on left (3.00 degrees glide path)2-light PAPI on left (3.00 degrees glide path)
Touchdown point: yes, no lightsyes, no lights
Obstructions: 20 ft. trees, 201 ft. from runway, 240 ft. right of centerline61 ft. trees, 1054 ft. from runway, 350 ft. right of centerline, 14:1 slope to clear

Airport Ownership and Management from official FAA records

Ownership: Publicly-owned
Owner: BRANTLEY COUNTY
33 ALLEN RD, PO BOX 398, 117 BRANTLY STREET
NAHUNTA, GA 31553
Phone 912-462-5256
Manager: BRIAN SINGLETON
33 ALLEN RD, PO BOX 792
NAHUNTA, GA 31553
Phone (912) 462-5256

Airport Operational Statistics

Aircraft operations: avg 83/month *
100% transient general aviation
* for 12-month period ending 31 December 2021

Additional Remarks

FOR CD CTC JACKSONVILLE ARTCC AT 904-845-1592.

Instrument Procedures

NOTE: All procedures below are presented as PDF files. If you need a reader for these files, you should download the free Adobe Reader.

NOT FOR NAVIGATION. Please procure official charts for flight.
FAA instrument procedures published for use from 01 December 2022 at 0901Z to 29 December 2022 at 0900z.

 
IAPs - Instrument Approach Procedures
RNAV (GPS) Y RWY 01   download (249KB)
RNAV (GPS) Y RWY 19   download (234KB)
RNAV (GPS) Z RWY 01   download (212KB)
RNAV (GPS) Z RWY 19   download (233KB)
NOTE: Special Take-Off Minimums/Departure Procedures apply   download (189KB)

Other nearby airports with instrument procedures:

KJES - Jesup-Wayne County Airport (21 nm N)
KBQK - Brunswick Golden Isles Airport (23 nm E)
KAYS - Waycross-Ware County Airport (25 nm W)
09J - Jekyll Island Airport (26 nm E)
KSSI - St Simons Island Airport (27 nm E)
 
Loc | Ops | Rwys | IFR | FBO | Links
Com | Nav | Svcs | Stats | Notes
Area around 4J1 (Brantley County Airport)
 
Road maps at: MapQuest Bing Google
 
Aerial photo
WARNING: Photo may not be current or correct
Aerial photo of 4J1 (Brantley County Airport)
Photo taken 24-Sep-2011
looking south-southwest.

Do you have a better or more recent aerial photo of Brantley County Airport that you would like to share? If so, please send us your photo.

 
Sectional chart

 
Airport distance calculator
Flying to Brantley County Airport? Find the distance to fly.

From to 4J1

Sunrise and sunset
Times for 03-Dec-2022
 Local
(UTC-5)
 Zulu
(UTC)
Morning civil twilight06:4511:45
Sunrise07:1112:11
Sunset17:2422:24
Evening civil twilight17:5022:50

Current date and time
Zulu (UTC)  04-Dec-2022 04:07:54
Local (UTC-5)  03-Dec-2022 23:07:54
 
METAR
KJES 
21nm N 
040350Z AUTO 00000KT 10SM OVC048 19/16 A3028 RMK AO2
KBQK 
23nm E 
040355Z AUTO 22005KT 10SM OVC050 18/15 A3026 RMK AO2 T01800154
KAYS 
25nm W 
040355Z AUTO 22003KT 10SM OVC048 19/18 A3026 RMK AO2 T01870180
KSSI 
27nm E 
040353Z AUTO 22006KT 10SM OVC050 19/16 A3026 RMK AO2 SLP247 T01940156
KAMG 
36nm NW 
040353Z AUTO 00000KT 10SM OVC048 19/16 A3026 RMK AO2 SLP243 T01940161
KBHC 
39nm NW 
040355Z AUTO 00000KT 10SM BKN043 OVC050 18/16 A3026 RMK AO2
TAF
KSSI 
27nm E 
031732Z 0318/0418 16007KT P6SM SCT040 BKN250 FM040100 20004KT P6SM SCT035 BKN100 OVC200 FM040700 26005KT P6SM SCT025 OVC050 FM041200 30005KT P6SM VCSH SCT020 OVC040 FM041600 34006KT P6SM BKN025 OVC035
NOTAMs
Click for the latest NOTAMs
NOTAMs are issued by the DoD/FAA and will open in a separate window not controlled by AirNav.

 

 
 

Would you like to see your business listed on this page?

 If your business provides an interesting product or service to pilots, flight crews, aircraft, or users of the Brantley County Airport, you should consider listing it here.  To start the listing process, click on the button below
 
Add a business
 

Other Pages about Brantley County Airport

Update a link
 
Copyright © AirNav, LLC. All rights reserved. Privacy Policy  Contact